Cairns, Australia

12:05 AM AEST on March 28, 2017 (GMT +1000)
Cairns International

Weather History for YBCS - February, 2014

Change the Weather History Date:

Tuesday, February 4, 2014

  Actual Average Record
Temperature  
Mean Temperature 78 °F -  
Max Temperature 84 °F 88 °F 93 °F (2016)
Min Temperature 71 °F 74 °F 41 °F (2007)
Cooling Degree Days 12    
Growing Degree Days 28 (Base 50)    
Moisture  
Dew Point 70 °F    
Average Humidity 78    
Maximum Humidity 100    
Minimum Humidity 47    
Precipitation  
Precipitation 0.03 in 0.56 in - ()
Sea Level Pressure  
Sea Level Pressure 29.71 in    
Wind  
Wind Speed 9 mph ()    
Max Wind Speed 21 mph    
Max Gust Speed -    
Visibility 5.9 miles    
Events Rain    
Averages and records for this station are not official NWS values.
T = Trace of Precipitation, MM = Missing Value Source: Averaged Metar Reports

Daily Weather History Graph

Daily Weather History Graph

Search for Another Location

Airport or City:

Trip Planner

Search our weather history database for the weather conditions in past years. The results will help you decide how hot, cold, wet, or windy it might be!

Date:

Astronomy

Feb. 04, 2014 Rise Set
Actual Time 6:06 AM AEST 6:54 PM AEST
Civil Twilight 5:44 AM AEST 7:17 PM AEST
Nautical Twilight 5:17 AM AEST 7:44 PM AEST
Astronomical Twilight 4:50 AM AEST 8:11 PM AEST
Moon 10:06 AM AEST (2/4) 10:12 PM AEST (2/4)
Length of Visible Light 13h 33m
Length of Day
12h 48m
Waxing Crescent, 23% of the Moon is Illuminated
Feb 4
Waxing Crescent
Feb 7
First Quarter
Feb 15
Full
Feb 23
Last Quarter
Mar 1
New

Hourly Weather History & Observations

Time (AEST) Temp. Heat Index Dew Point Humidity Pressure Visibility Wind Dir Wind Speed Gust Speed Precip Events Conditions
12:00 AM 72 °F - 69 °F 89% 29.70 in - West 5.8 mph - -   Overcast
12:00 AM 73.4 °F - 69.8 °F 88% 29.68 in 6.2 mi West 5.8 mph - N/A Rain Light Rain Showers
12:30 AM 75.2 °F - 69.8 °F 83% 29.68 in 6.2 mi West 4.6 mph - N/A   Mostly Cloudy
1:00 AM 76 °F - 69 °F 75% 29.68 in - South 9.2 mph - -  
1:00 AM 77.0 °F - 69.8 °F 78% 29.65 in 6.2 mi South 9.2 mph - N/A   Mostly Cloudy
1:30 AM 75.2 °F - 69.8 °F 83% 29.65 in 6.2 mi SSE 8.1 mph - N/A Rain Light Rain Showers
2:00 AM 77.0 °F - 71.6 °F 83% 29.65 in 6.2 mi SW 6.9 mph - N/A Rain Light Rain Showers
2:25 AM 75.2 °F - 71.6 °F 89% 29.65 in 3.7 mi East 13.8 mph - N/A Rain Rain Showers
2:30 AM 75.2 °F - 71.6 °F 89% 29.65 in 3.7 mi South 8.1 mph - N/A Rain Rain Showers
2:40 AM 73.4 °F - 71.6 °F 94% 29.65 in 6.2 mi SE 13.8 mph - N/A Rain Light Rain Showers
3:00 AM 75 °F - 70 °F 81% 29.65 in - SSW 9.2 mph - -   Overcast
3:00 AM 75.2 °F - 69.8 °F 83% 29.65 in 6.2 mi SSW 9.2 mph - N/A Rain Light Rain Showers
3:30 AM 73.4 °F - 71.6 °F 94% 29.65 in 6.2 mi South 15.0 mph - N/A Rain Light Rain Showers
4:00 AM 75 °F - 70 °F 81% 29.65 in - South 15.0 mph - -  
4:00 AM 75.2 °F - 69.8 °F 83% 29.65 in 6.2 mi South 15.0 mph - N/A Rain Light Rain Showers
4:30 AM 73.4 °F - 71.6 °F 94% 29.65 in 5.0 mi South 12.7 mph - N/A Rain Light Rain Showers
4:40 AM 73.4 °F - 71.6 °F 94% 29.65 in 3.1 mi South 10.4 mph - N/A Rain Light Rain Showers
5:00 AM 73.4 °F - 71.6 °F 94% 29.65 in 5.0 mi South 9.2 mph - N/A Rain Light Rain Showers
5:57 AM 73.4 °F - 69.8 °F 88% 29.68 in 2.5 mi South 6.9 mph - N/A Rain Light Rain Showers
6:00 AM 73 °F - 71 °F 90% 29.70 in 2 mi South 6.9 mph - - Rain Light Rain Showers
6:00 AM 73.4 °F - 71.6 °F 94% 29.68 in 1.9 mi South 6.9 mph - N/A Rain Light Rain Showers
6:30 AM 73.4 °F - 71.6 °F 94% 29.71 in 3.1 mi South 4.6 mph - N/A Rain Light Rain Showers
7:00 AM 73 °F - 72 °F 95% 29.73 in - NNW 3.5 mph - -  
7:00 AM 73.4 °F - 71.6 °F 94% 29.71 in 3.1 mi NNW 3.5 mph - N/A Rain Light Rain Showers
7:20 AM 73.4 °F - 71.6 °F 94% 29.71 in 5.6 mi West 4.6 mph - N/A Rain Light Rain Showers
7:35 AM 73.4 °F - 71.6 °F 94% 29.71 in 2.5 mi NW 5.8 mph - N/A Rain Light Rain Showers
7:44 AM 73.4 °F - 73.4 °F 100% 29.74 in 1.2 mi NE 5.8 mph - N/A Rain Rain Showers
8:00 AM 73.4 °F - 73.4 °F 100% 29.74 in 5.6 mi SW 4.6 mph - N/A   Mostly Cloudy
8:20 AM 75.2 °F - 71.6 °F 89% 29.74 in 6.2 mi NW 3.5 mph - N/A   Mostly Cloudy
8:30 AM 77.0 °F - 71.6 °F 83% 29.74 in 6.2 mi South 6.9 mph - N/A   Mostly Cloudy
9:00 AM 77 °F - 71 °F 77% 29.75 in 9 mi SSW 12.7 mph - -   Overcast
9:00 AM 77.0 °F - 71.6 °F 83% 29.74 in 6.2 mi SSW 12.7 mph - N/A   Mostly Cloudy
9:24 AM 75.2 °F - 71.6 °F 89% 29.74 in 3.7 mi South 15.0 mph - N/A Rain Light Rain Showers
9:30 AM 75.2 °F - 71.6 °F 89% 29.74 in 6.2 mi South 15.0 mph - N/A   Mostly Cloudy
10:00 AM 77 °F - 71 °F 77% 29.75 in - SSW 8.1 mph - -  
10:00 AM 77.0 °F - 71.6 °F 83% 29.74 in 6.2 mi SSW 8.1 mph - N/A   Mostly Cloudy
10:30 AM 78.8 °F - 71.6 °F 78% 29.74 in 6.2 mi South 12.7 mph - N/A   Mostly Cloudy
11:00 AM 78.8 °F - 71.6 °F 78% 29.74 in 6.2 mi South 11.5 mph - N/A   Mostly Cloudy
11:30 AM 80.6 °F 84.6 °F 71.6 °F 74% 29.74 in 6.2 mi South 10.4 mph - N/A   Mostly Cloudy
12:00 PM 81 °F - 71 °F 65% 29.73 in 16 mi South 10.4 mph - -   Partly Cloudy
12:00 PM 80.6 °F 84.6 °F 71.6 °F 74% 29.71 in 6.2 mi South 10.4 mph - N/A   Mostly Cloudy
12:30 PM 80.6 °F 84.6 °F 71.6 °F 74% 29.71 in 6.2 mi South 9.2 mph - N/A   Mostly Cloudy
1:00 PM 83 °F - 72 °F 62% 29.73 in - SSE 12.7 mph - -  
1:00 PM 82.4 °F 87.2 °F 71.6 °F 70% 29.71 in 6.2 mi SSE 12.7 mph - N/A   Mostly Cloudy
1:30 PM 84.2 °F 88.4 °F 69.8 °F 62% 29.71 in 6.2 mi SSE 20.7 mph - N/A   Mostly Cloudy
2:00 PM 82.4 °F 84.6 °F 66.2 °F 58% 29.68 in 6.2 mi SSE 19.6 mph - N/A   Mostly Cloudy
2:30 PM 84.2 °F 87.3 °F 68.0 °F 58% 29.68 in 6.2 mi SE 16.1 mph - N/A   Mostly Cloudy
3:00 PM 83 °F - 66 °F 47% 29.69 in 16 mi SE 17.3 mph - -   Partly Cloudy
3:00 PM 82.4 °F 84.6 °F 66.2 °F 58% 29.68 in 6.2 mi SE 17.3 mph - N/A   Overcast
3:30 PM 82.4 °F 84.6 °F 66.2 °F 58% 29.68 in 6.2 mi SE 16.1 mph - N/A   Mostly Cloudy
4:00 PM 82 °F - 67 °F 53% 29.70 in - SE 16.1 mph - -  
4:00 PM 82.4 °F 85.4 °F 68.0 °F 62% 29.68 in 6.2 mi SE 16.1 mph - N/A   Mostly Cloudy
4:30 PM 82.4 °F 85.4 °F 68.0 °F 62% 29.68 in 6.2 mi SE 11.5 mph - N/A   Mostly Cloudy
5:00 PM 80.6 °F 83.2 °F 68.0 °F 65% 29.71 in 6.2 mi SE 9.2 mph - N/A   Mostly Cloudy
5:30 PM 80.6 °F 83.9 °F 69.8 °F 70% 29.71 in 6.2 mi SE 10.4 mph - N/A   Mostly Cloudy
6:00 PM 80 °F - 69 °F 62% 29.73 in - SSE 8.1 mph - -   Overcast
6:00 PM 80.6 °F 83.9 °F 69.8 °F 70% 29.71 in 6.2 mi SSE 8.1 mph - N/A   Mostly Cloudy
6:30 PM 78.8 °F - 69.8 °F 74% 29.74 in 6.2 mi SSE 6.9 mph - N/A   Mostly Cloudy
7:00 PM 78 °F - 69 °F 68% 29.76 in - South 5.8 mph - -  
7:00 PM 78.8 °F - 69.8 °F 74% 29.74 in 6.2 mi South 5.8 mph - N/A   Mostly Cloudy
7:30 PM 78.8 °F - 69.8 °F 74% 29.77 in 6.2 mi South 4.6 mph - N/A   Mostly Cloudy
8:00 PM 78.8 °F - 69.8 °F 74% 29.77 in 6.2 mi South 3.5 mph - N/A   Mostly Cloudy
8:30 PM 78.8 °F - 69.8 °F 74% 29.77 in 6.2 mi South 8.1 mph - N/A   Mostly Cloudy
9:00 PM 78 °F - 69 °F 67% 29.79 in - South 8.1 mph - -   Overcast
9:00 PM 78.8 °F - 69.8 °F 74% 29.77 in 6.2 mi South 8.1 mph - N/A   Mostly Cloudy
9:30 PM 78.8 °F - 68.0 °F 69% 29.77 in 6.2 mi South 6.9 mph - N/A   Scattered Clouds
10:00 PM 78 °F - 69 °F 67% 29.80 in - South 8.1 mph - -  
10:00 PM 78.8 °F - 69.8 °F 74% 29.80 in 6.2 mi South 8.1 mph - N/A   Scattered Clouds
10:30 PM 78.8 °F - 69.8 °F 74% 29.80 in 6.2 mi South 6.9 mph - N/A   Mostly Cloudy
11:00 PM 78.8 °F - 68.0 °F 69% 29.80 in 6.2 mi South 5.8 mph - N/A   Mostly Cloudy
11:30 PM 78.8 °F - 68.0 °F 69% 29.77 in 6.2 mi SSE 6.9 mph - N/A   Mostly Cloudy